Elk City, ID

5:11 PM PST on February 22, 2017 (GMT -0800)
Lowell

Weather History for KP69 - August, 2013

Change the Weather History Date:

Monday, August 5, 2013

  Actual Average Record
Temperature  
Mean Temperature 76 °F -  
Max Temperature 96 °F 89 °F 100 °F (2010)
Min Temperature 57 °F 54 °F 50 °F (2002)
Cooling Degree Days 12    
Growing Degree Days 26 (Base 50)    
Moisture  
Dew Point 54 °F    
Average Humidity 63    
Maximum Humidity 89    
Minimum Humidity 21    
Precipitation  
Precipitation 0.00 in - - ()
Sea Level Pressure  
Sea Level Pressure 29.90 in    
Wind  
Wind Speed 1 mph (NNW)    
Max Wind Speed 4 mph    
Max Gust Speed -    
Averages and records for this station are not official NWS values.
T = Trace of Precipitation, MM = Missing Value Source: NWS Daily Summary

Daily Weather History Graph

Daily Weather History Graph

Search for Another Location

Airport or City:

Trip Planner

Search our weather history database for the weather conditions in past years. The results will help you decide how hot, cold, wet, or windy it might be!

Date:

Astronomy

Aug. 05, 2013 Rise Set
Actual Time 6:29 AM MDT 9:04 PM MDT
Civil Twilight 5:56 AM MDT 9:38 PM MDT
Nautical Twilight 5:13 AM MDT 10:20 PM MDT
Astronomical Twilight 4:24 AM MDT 11:09 PM MDT
Moon 5:29 AM MDT (8/5) 8:05 PM MDT (8/5)
Length of Visible Light 15h 42m
Length of Day
14h 34m
Waning Crescent, 1% of the Moon is Illuminated
Aug 5
Waning Crescent
Aug 6
New
Aug 14
First Quarter
Aug 20
Full
Aug 28
Last Quarter

Hourly Weather History & Observations

Time (MDT) Temp. Heat Index Dew Point Humidity Pressure Visibility Wind Dir Wind Speed Gust Speed Precip Events Conditions
12:52 AM 62.1 °F - 55.9 °F 80% 29.95 in - Calm Calm - N/A   Unknown
1:52 AM 60.1 °F - 55.9 °F 86% 29.95 in - Calm Calm - N/A   Unknown
2:52 AM 59.0 °F - 55.0 °F 87% 29.94 in - Calm Calm - N/A   Unknown
3:52 AM 57.9 °F - 54.0 °F 87% 29.95 in - WNW 3.5 mph - N/A   Unknown
4:52 AM 57.9 °F - 54.0 °F 87% 29.94 in - NNW 3.5 mph - N/A   Unknown
5:52 AM 57.9 °F - 54.0 °F 87% 29.95 in - Calm Calm - N/A   Unknown
6:52 AM 57.0 °F - 54.0 °F 89% 29.98 in - NNW 3.5 mph - N/A   Unknown
7:52 AM 59.0 °F - 54.0 °F 83% 29.99 in - Calm Calm - N/A   Unknown
8:52 AM 60.1 °F - 54.0 °F 80% 30.01 in - NNW 3.5 mph - N/A   Unknown
9:52 AM 64.0 °F - 53.1 °F 67% 29.97 in - Calm Calm - N/A   Unknown
10:52 AM 66.9 °F - 52.0 °F 59% 29.97 in - Calm Calm - N/A   Unknown
11:52 AM 71.1 °F - 52.0 °F 51% 29.96 in - Calm Calm - N/A   Unknown
12:52 PM 79.0 °F - 53.1 °F 40% 29.92 in - Calm Calm - N/A   Unknown
1:52 PM 84.9 °F - 51.1 °F 31% 29.88 in - Calm Calm - N/A   Unknown
2:52 PM 89.1 °F - 51.1 °F 27% 29.85 in - Calm Calm - N/A   Unknown
3:52 PM 96.1 °F - 50.0 °F 21% 29.81 in - Calm Calm - N/A   Unknown
4:52 PM 89.1 °F 87.1 °F 55.0 °F 31% 29.79 in - Calm Calm - N/A   Unknown
5:52 PM 87.1 °F 85.3 °F 55.0 °F 33% 29.78 in - Calm Calm - N/A   Unknown
6:52 PM 78.1 °F - 55.9 °F 46% 29.80 in - Calm Calm - N/A   Unknown
7:52 PM 75.0 °F - 55.9 °F 51% 29.81 in - Calm Calm - N/A   Unknown
8:52 PM 70.0 °F - 59.0 °F 68% 29.84 in - Calm Calm - N/A   Unknown
9:52 PM 68.0 °F - 57.9 °F 70% 29.87 in - Calm Calm - N/A   Unknown
10:52 PM 64.9 °F - 57.0 °F 75% 29.89 in - Calm Calm - N/A   Unknown
11:52 PM 64.0 °F - 57.0 °F 78% 29.90 in - Calm Calm - N/A   Unknown